SL-12 DEB, 19753

Orbit data source: Space-Track

SL-12 DEB, 19753 is space debris in MEO originally from a launch on Tue, 10 Jan 1989 UTC launched from the Tyuratam Missile And Space Complex (TTMTR). Debris objects in space refer to the collection of defunct objects orbiting the Earth. Examples of debris include non-operational satellites, rocket bodies, and fragments generated from explosions, collisions, or faulty payload assembly.

Loading next visibility...
Identifier
19753, 1989-001E
Orbit
MEO
Country
Flag of CISCIS
Related business
Manufacturer
NPO PM
Mission
Spacecraft
Bus & Motor
ETALON ADAPTER, Unknown motor
Mass
Unknown
Launch date (UTC)
1989-01-10 (37 years ago)
Launch vehicle
Unknown
Launch site
Tyuratam Missile And Space Complex (TTMTR)
Object type
Payload
Rocket body
Debris
Shape & HBR
Unknown shape, 1.1 m
Radar Cross Section
Medium (>0.1 m² and <1 m²)

Expand to show TLE details & history
Last TLE update: 1 day ago

TLE from 1 day ago
0 SL-12 DEB
1 19753U 89001E   26073.11428957  .00000054  00000-0  00000-0 0  9997
2 19753  64.8911  75.4170 0025516 221.3687 135.3091  2.13160884289653
Epoch: 2026-03-14T02:44Z
TLE epoch observation values (Epoch: 2026-03-14T02:44:34.618Z)
Latitude
-2.86028°
Longitude
-138.81438°
Altitude
19,172.427 km
Speed
3.946 km/s
True Right ascension
04h 56m 16s
True Declination
-2° 51' 20"
Sunlit
Object was in daylight at epoch
Visualization orbit readout
Latitude
Unknown
Longitude
Unknown
Altitude
Unknown
Speed
Unknown
Apparent Right ascension
Unknown
Apparent Declination
Unknown
Sunlit
N/A
Visualization observer readout
Local Sidereal Time
16:07:45
Azimuth
Unknown
Elevation
Unknown
Doppler factor
Unknown
Orbital elements
Apogee altitude
19,189.882 km
Perigee altitude
19,059.735 km
Semi-major axis
25,502.945 km
Eccentricity
0.00255
Inclination
64.8911°
RAAN
75.417°
Arg. of periapsis
221.3687°
True anomaly
135.51427°
Mean anomaly
135.3091°
Eccentric anomaly
135.41173°
Mean motion
0.53291 °/min
Orbital period
675.53 mins
BSTAR
0
Loading maneuver chart data...
Computing Atmospheric mass density...

Documentation

Showing up to 5 results
|